Regional Weather Roundup
Issued by NWS Little Rock, AR

Home | Current Version | Previous Version | Text Only | Print | Product List | Glossary Off
Versions: 1 2 3 4 5 6 7 8 9 10 11 12 13 14 15 16 17 18 19 20 21 22 23 24 25 26 27 28 29 30 31 32 33 34 35 36 37 38 39 40 41 42 43 44 45 46 47 48 49 50

000
ASUS44 KLZK 281405
RWRLZK

WEATHER ROUNDUP FOR ARKANSAS
NATIONAL WEATHER SERVICE LITTLE ROCK AR
900 AM CDT THU AUG 28 2014

NOTE: "FAIR" INDICATES FEW OR NO CLOUDS BELOW 12,000 FEET WITH NO
SIGNIFICANT WEATHER AND/OR OBSTRUCTIONS TO VISIBILITY.

ARZ001-003-010-029-281500-
NORTHWEST ARKANSAS

CITY           SKY/WX    TMP DP  RH WIND       PRES   REMARKS
FAYETTEVILLE   SUNNY     75  70  84 S3        30.05F
FORT SMITH     SUNNY     78  71  79 E5        30.01S
HARRISON       SUNNY     76  70  82 SE6       30.07S
BENTONVILLE    SUNNY     79  68  69 S10       30.05S
ROGERS         SUNNY     78  67  68 SE12      30.06S
SILOAM SPGS    SUNNY     77  64  65 S7        30.05S
HIGHFILL       SUNNY     77  68  73 S7        30.04S
SPRINGDALE     SUNNY     77  70  78 S7        30.07S
$$

ARZ004-005-016-281500-
NORTH CENTRAL ARKANSAS

CITY           SKY/WX    TMP DP  RH WIND       PRES   REMARKS
BATESVILLE     SUNNY     79  72  78 CALM      30.04S
FLIPPIN        SUNNY     75  66  73 CALM      30.05F
MTN HOME       SUNNY     78  68  71 SE5       30.05F
$$

ARZ040-041-281500-
WEST CENTRAL ARKANSAS

CITY           SKY/WX    TMP DP  RH WIND       PRES   REMARKS
MENA           PTSUNNY   72  70  94 CALM      30.05S
MOUNT IDA      FOG       71  70  96 CALM      30.02S VSB 1/4
$$

ARZ009-017-025-026-028-281500-
NORTHEAST ARKANSAS

CITY           SKY/WX    TMP DP  RH WIND       PRES   REMARKS
CORNING          N/A     81  73  78 CALM      30.05S HX  85
JONESBORO      SUNNY     80  70  71 S3        30.03F
NEWPORT        MOSUNNY   82  71  69 CALM      30.04F HAZE    HX  86
WALNUT RIDGE   SUNNY     75  70  83 CALM      30.03F
BLYTHEVILLE    SUNNY     84  76  76 N3        30.04S HX  93
$$

ARZ022-023-033-042-044-281500-
CENTRAL ARKANSAS

CITY           SKY/WX    TMP DP  RH WIND       PRES   REMARKS
LITTLE ROCK    MOSUNNY   81  70  69 CALM      30.03R
N LITTLE ROCK  MOSUNNY   80  71  73 E3        30.03R
JACKSONVILLE   PTSUNNY   79  72  78 CALM      30.03S FOG
SEARCY         SUNNY     81  70  69 CALM      30.04S
HOT SPRINGS    MOSUNNY   76  70  82 CALM      30.03S
RUSSELLVILLE   SUNNY     79  70  74 E3        30.03S
CLINTON        FAIR      75  70  83 CALM      30.06S
$$

ARZ036-281500-
EAST ARKANSAS

CITY           SKY/WX    TMP DP  RH WIND       PRES   REMARKS
WEST MEMPHIS   SUNNY     81  71  71 CALM      30.02S HX  85
$$

ARZ050-053-066-070-073-281500-
SOUTHWEST ARKANSAS

CITY           SKY/WX    TMP DP  RH WIND       PRES   REMARKS
ARKADELPHIA    FAIR      78  73  84 N3        30.02S
CAMDEN         LGT RAIN  75  68  78 CALM      30.00S
TEXARKANA      SUNNY     77  69  76 VRB5      30.00S
EL DORADO      SUNNY     79  69  71 CALM      30.01S
DE QUEEN       SUNNY     77  71  82 E5        29.99S
$$

ARZ056-057-069-281500-
SOUTHEAST ARKANSAS

CITY           SKY/WX    TMP DP  RH WIND       PRES   REMARKS
PINE BLUFF     PTSUNNY   77  71  82 CALM      30.02S
STUTTGART      SUNNY     79  70  73 SE5       30.03S
MONTICELLO     SUNNY     79  68  69 E5        30.02R

$$





USA.gov is the U.S. government's official web portal to all federal, state and local government web resources and services.